EW2373 Weather Reports


time (UTC)temp
C
wind
direction
speed
KPH
gust
KPH
rain 1hr
cm
rain 24hr
cm
rain mn
cm
humidity
%
barometer
mb
20260906104510 -17 0.0 0.0 0.00 0.00 0.00 1014.6
20260906103006 -17 0.0 0.0 0.00 0.00 0.00 1014.5
20260906101558 21 22 0.0 0.0 0.00 0.00 0.00 1 1014.4
20260906100100 22 56 0.0 0.0 0.00 0.00 0.00 1 1014.4
20260906094553 22 342 0.0 0.0 0.00 0.00 0.00 1 1014.4
20260906093047 22 320 0.0 0.0 0.00 0.00 0.00 1 1014.2
20260906091544 22 331 0.0 0.0 0.00 0.00 0.00 1 1014.2
20260906090039 21 58 0.0 0.0 0.00 0.00 0.00 1 1014.2
20260906084534 21 60 0.0 0.0 0.00 0.00 0.00 1 1014.1
20260906083030 21 54 0.0 0.0 0.00 0.00 0.00 1 1014.1
20260906081526 21 44 0.0 0.0 0.00 0.00 0.00 1 1013.9
20260906080022 21 5 0.0 0.0 0.00 0.00 0.00 1 1014.0
20260906074520 21 37 0.0 0.0 0.00 0.00 0.00 1 1013.9
20260906073013 21 302 0.0 0.0 0.00 0.00 0.00 1 1013.8
20260906071509 22 53 0.0 0.0 0.00 0.00 0.00 1 1013.8
20260906070014 22 322 0.0 0.0 0.00 0.00 0.00 1 1013.8
20260906064600 22 323 0.0 0.0 0.00 0.00 0.00 1 1014.0
20260906063056 22 46 0.0 0.0 0.00 0.00 0.00 1 1014.1
20260906061554 23 72 0.0 0.0 0.00 0.00 0.00 1 1014.1
20260906060047 23 50 0.0 0.0 0.00 0.00 0.00 1 1014.3
20260906054559 24 41 0.0 0.0 0.00 0.00 0.00 1 1014.3
20260906053038 24 41 0.0 0.0 0.00 0.00 0.00 1 1014.3
20260906051536 25 53 0.0 0.0 0.00 0.00 0.00 1 1014.2
20260906050035 25 53 0.0 0.0 0.00 0.00 0.00 1 1014.1
20260906044524 26 45 0.0 0.0 0.00 0.00 0.00 1 1014.0
20260906043020 26 34 0.0 0.0 0.00 0.00 0.00 1 1013.9
20260906041515 26 56 0.0 0.0 0.00 0.00 0.00 1 1013.6
20260906040011 27 58 0.0 0.0 0.00 0.00 0.00 1 1013.5
20260906034506 27 50 0.0 0.0 0.00 0.00 0.00 1 1013.4
20260906033002 27 15 0.0 0.0 0.00 0.00 0.00 1 1013.3
20260906031613 27 18 0.0 0.0 0.00 0.00 0.00 1 1013.1
20260906030054 28 57 0.0 0.0 0.00 0.00 0.00 1 1013.0
20260906024559 28 49 0.0 0.0 0.00 0.00 0.00 6 1012.7
20260906023047 28 55 0.0 0.0 0.00 0.00 0.00 12 1012.5
20260906021540 29 52 0.0 0.0 0.00 0.00 0.00 18 1012.3
20260906020036 30 44 0.0 0.0 0.00 0.00 0.00 24 1012.1
20260906014530 30 334 0.0 0.0 0.00 0.00 0.00 31 1012.1
20260906013027 30 27 0.0 0.0 0.00 0.00 0.00 35 1011.9
20260906011522 30 55 0.0 0.0 0.00 0.00 0.00 39 1011.6
20260906010038 30 330 0.0 0.0 0.00 0.00 0.00 43 1011.5
20260906004513 31 349 0.0 0.0 0.00 0.00 0.00 46 1011.4
20260906003012 -17 351 0.0 0.0 0.00 0.00 0.00 1011.3
20260906001508 32 4 0.0 0.0 0.00 0.00 0.00 50 1011.4
20260906000007 32 53 0.0 0.0 0.00 0.00 0.00 50 1011.5
20260905234606 33 53 0.0 0.0 0.00 0.00 0.00 50 1011.4
20260905233057 33 358 0.0 0.0 0.00 0.00 0.00 50 1011.3
20260905231550 34 330 0.0 0.0 0.00 0.00 0.00 49 1011.1
20260905230045 34 331 0.0 0.0 0.00 0.00 0.00 49 1011.1
20260905224541 35 339 0.0 0.0 0.00 0.00 0.00 47 1010.9
20260905223036 36 42 0.0 0.0 0.00 0.00 0.00 45 1010.8
20260905221532 36 45 0.0 0.0 0.00 0.00 0.00 45 1010.9
20260905220030 36 346 0.0 0.0 0.00 0.00 0.00 44 1010.8
20260905214522 36 277 0.0 0.0 0.00 0.00 0.00 43 1010.9
20260905213018 36 325 0.0 0.0 0.00 0.00 0.00 43 1011.0
20260905211539 36 49 0.0 0.0 0.00 0.00 0.00 42 1011.0
20260905210010 36 247 0.0 0.0 0.00 0.00 0.00 41 1011.2
20260905204507 35 262 0.0 0.0 0.00 0.00 0.00 41 1011.5
20260905203003 33 288 0.0 0.0 0.00 0.00 0.00 42 1011.8
20260905201606 32 226 0.0 0.0 0.00 0.00 0.00 46 1011.9
20260905200115 31 340 0.0 0.0 0.00 0.00 0.00 51 1012.1
20260905194549 33 272 0.0 0.0 0.00 0.00 0.00 49 1012.2
20260905193045 34 323 0.0 0.0 0.00 0.00 0.00 47 1012.0
20260905191540 36 332 0.0 0.0 0.00 0.00 0.00 43 1012.0
20260905190038 37 328 0.0 0.0 0.00 0.00 0.00 41 1012.1
20260905184532 37 285 0.0 0.0 0.00 0.00 0.00 40 1012.1
20260905183032 37 293 0.0 0.0 0.00 0.00 0.00 40 1012.4
20260905181523 36 340 0.0 0.0 0.00 0.00 0.00 41 1012.4
20260905180018 36 354 0.0 0.0 0.00 0.00 0.00 41 1012.6
20260905174513 37 291 0.0 0.0 0.00 0.00 0.00 40 1012.7
20260905173022 36 246 0.0 0.0 0.00 0.00 0.00 42 1012.7
20260905171505 36 360 0.0 0.0 0.00 0.00 0.00 41 1013.0
20260905170116 36 257 0.0 0.0 0.00 0.00 0.00 41 1013.3
20260905170001 36 233 0.0 0.0 0.00 0.00 0.00 41 1013.2
20260905164556 36 250 0.0 0.0 0.00 0.00 0.00 41 1013.3
20260905163052 36 274 0.0 0.0 0.00 0.00 0.00 41 1013.4
20260905161547 35 354 0.0 0.0 0.00 0.00 0.00 40 1013.4
20260905160042 35 10 0.0 0.0 0.00 0.00 0.00 39 1013.5
20260905154537 35 108 0.0 0.0 0.00 0.00 0.00 38 1013.7
20260905153033 35 335 0.0 0.0 0.00 0.00 0.00 36 1013.7
20260905151529 34 259 0.0 0.0 0.00 0.00 0.00 35 1013.9
20260905150025 33 321 0.0 0.0 0.00 0.00 0.00 32 1013.7
20260905144520 33 312 0.0 0.0 0.00 0.00 0.00 29 1013.6
20260905143015 32 262 0.0 0.0 0.00 0.00 0.00 26 1013.7
20260905141522 32 294 0.0 0.0 0.00 0.00 0.00 20 1013.8
20260905140007 31 322 0.0 0.0 0.00 0.00 0.00 16 1014.0
20260905134501 30 245 0.0 0.0 0.00 0.00 0.00 9 1014.1
20260905133058 29 280 0.0 0.0 0.00 0.00 0.00 1 1014.0
20260905131552 28 262 0.0 0.0 0.00 0.00 0.00 1 1014.1
20260905130048 27 251 0.0 0.0 0.00 0.00 0.00 1 1014.0
20260905124543 26 224 0.0 0.0 0.00 0.00 0.00 1014.0
20260905123038 -17 224 0.0 0.0 0.00 0.00 0.00 1014.0
20260905121535 -17 0.0 0.0 0.00 0.00 0.00 1014.0
20260905120030 -17 0.0 0.0 0.00 0.00 0.00 1013.8
20260905114525 -17 0.0 0.0 0.00 0.00 0.00 1013.7
20260905113022 -17 0.0 0.0 0.00 0.00 0.00 1013.6
20260905111518 -17 0.0 0.0 0.00 0.00 0.00 1013.6
20260905110015 -17 0.0 0.0 0.00 0.00 0.00 1013.4